Year,Month,Day,Hour,Minute,Value (Times are PST for temperature in C)
2022,10,03,00,00,14.90
2022,10,03,00,01,14.90
2022,10,03,00,02,14.90
2022,10,03,00,03,14.90
2022,10,03,00,04,14.90
2022,10,03,00,05,14.90
2022,10,03,00,06,14.90
2022,10,03,00,07,14.90
2022,10,03,00,08,14.90
2022,10,03,00,09,14.90
2022,10,03,00,10,14.90
2022,10,03,00,11,14.90
2022,10,03,00,12,14.90
2022,10,03,00,13,14.90
2022,10,03,00,14,14.90
2022,10,03,00,15,15.00
2022,10,03,00,16,15.00
2022,10,03,00,17,15.00
2022,10,03,00,18,14.90
2022,10,03,00,19,15.00
2022,10,03,00,20,14.90
2022,10,03,00,21,14.90
2022,10,03,00,22,14.90
2022,10,03,00,23,14.90
2022,10,03,00,24,14.90
2022,10,03,00,25,14.90
2022,10,03,00,26,14.90
2022,10,03,00,27,14.90
2022,10,03,00,28,14.90
2022,10,03,00,29,14.90
2022,10,03,00,30,14.90
2022,10,03,00,31,14.90
2022,10,03,00,32,14.90
2022,10,03,00,33,14.90
2022,10,03,00,34,14.80
2022,10,03,00,35,14.80
2022,10,03,00,36,14.80
2022,10,03,00,37,14.80
2022,10,03,00,38,14.80
2022,10,03,00,39,14.80
2022,10,03,00,40,14.80
2022,10,03,00,41,14.80
2022,10,03,00,42,14.80
2022,10,03,00,43,14.80
2022,10,03,00,44,14.70
2022,10,03,00,45,14.70
2022,10,03,00,46,14.70
2022,10,03,00,47,14.70
2022,10,03,00,48,14.70
2022,10,03,00,49,14.70
2022,10,03,00,50,14.70
2022,10,03,00,51,14.60
2022,10,03,00,52,14.60
2022,10,03,00,53,14.60
2022,10,03,00,54,14.60
2022,10,03,00,55,14.60
2022,10,03,00,56,14.50
2022,10,03,00,57,14.50
2022,10,03,00,58,14.50
2022,10,03,00,59,14.50
2022,10,03,01,00,14.50
2022,10,03,01,01,14.50
2022,10,03,01,02,14.40
2022,10,03,01,03,14.40
2022,10,03,01,04,14.40
2022,10,03,01,05,14.40
2022,10,03,01,06,14.40
2022,10,03,01,07,14.40
2022,10,03,01,08,14.40
2022,10,03,01,09,14.40
2022,10,03,01,10,14.40
2022,10,03,01,11,14.40
2022,10,03,01,12,14.40
2022,10,03,01,13,14.40
2022,10,03,01,14,14.40
2022,10,03,01,15,14.30
2022,10,03,01,16,14.30
2022,10,03,01,17,14.30
2022,10,03,01,18,14.30
2022,10,03,01,19,14.30
2022,10,03,01,20,14.30
2022,10,03,01,21,14.30
2022,10,03,01,22,14.30
2022,10,03,01,23,14.30
2022,10,03,01,24,14.30
2022,10,03,01,25,14.30
2022,10,03,01,26,14.30
2022,10,03,01,27,14.30
2022,10,03,01,28,14.30
2022,10,03,01,29,14.30
2022,10,03,01,30,14.30
2022,10,03,01,31,14.30
2022,10,03,01,32,14.30
2022,10,03,01,33,14.30
2022,10,03,01,34,14.30
2022,10,03,01,35,14.30
2022,10,03,01,36,14.30
2022,10,03,01,37,14.30
2022,10,03,01,38,14.20
2022,10,03,01,39,14.20
2022,10,03,01,40,14.20
2022,10,03,01,41,14.20
2022,10,03,01,42,14.20
2022,10,03,01,43,14.20
2022,10,03,01,44,14.10
2022,10,03,01,45,14.10
2022,10,03,01,46,14.10
2022,10,03,01,47,14.10
2022,10,03,01,48,14.10
2022,10,03,01,49,14.10
2022,10,03,01,50,14.10
2022,10,03,01,51,14.10
2022,10,03,01,52,14.10
2022,10,03,01,53,14.10
2022,10,03,01,54,14.00
2022,10,03,01,55,14.00
2022,10,03,01,56,14.00
2022,10,03,01,57,14.00
2022,10,03,01,58,13.90
2022,10,03,01,59,13.90
2022,10,03,02,00,13.90
2022,10,03,02,01,13.90
2022,10,03,02,02,13.90
2022,10,03,02,03,13.90
2022,10,03,02,04,13.90
2022,10,03,02,05,13.80
2022,10,03,02,06,13.80
2022,10,03,02,07,13.80
2022,10,03,02,08,13.80
2022,10,03,02,09,13.80
2022,10,03,02,10,13.80
2022,10,03,02,11,13.80
2022,10,03,02,12,13.80
2022,10,03,02,13,13.80
2022,10,03,02,14,13.80
2022,10,03,02,15,13.80
2022,10,03,02,16,13.80
2022,10,03,02,17,13.90
2022,10,03,02,18,13.90
2022,10,03,02,19,13.90
2022,10,03,02,20,13.90
2022,10,03,02,21,13.90
2022,10,03,02,22,13.90
2022,10,03,02,23,13.90
2022,10,03,02,24,13.90
2022,10,03,02,25,13.90
2022,10,03,02,26,13.80
2022,10,03,02,27,13.80
2022,10,03,02,28,13.80
2022,10,03,02,29,13.80
2022,10,03,02,30,13.80
2022,10,03,02,31,13.80
2022,10,03,02,32,13.80
2022,10,03,02,33,13.80
2022,10,03,02,34,13.80
2022,10,03,02,35,13.80
2022,10,03,02,36,13.80
2022,10,03,02,37,13.80
2022,10,03,02,38,13.80
2022,10,03,02,39,13.80
2022,10,03,02,40,13.80
2022,10,03,02,41,13.80
2022,10,03,02,42,13.80
2022,10,03,02,43,13.80
2022,10,03,02,44,13.80
2022,10,03,02,45,13.80
2022,10,03,02,46,13.70
2022,10,03,02,47,13.70
2022,10,03,02,48,13.70
2022,10,03,02,49,13.70
2022,10,03,02,50,13.70
2022,10,03,02,51,13.70
2022,10,03,02,52,13.70
2022,10,03,02,53,13.70
2022,10,03,02,54,13.70
2022,10,03,02,55,13.60
2022,10,03,02,56,13.60
2022,10,03,02,57,13.60
2022,10,03,02,58,13.60
2022,10,03,02,59,13.60
2022,10,03,03,00,13.60
2022,10,03,03,01,13.60
2022,10,03,03,02,13.60
2022,10,03,03,03,13.60
2022,10,03,03,04,13.60
2022,10,03,03,05,13.60
2022,10,03,03,06,13.60
2022,10,03,03,07,13.60
2022,10,03,03,08,13.60
2022,10,03,03,09,13.60
2022,10,03,03,10,13.60
2022,10,03,03,11,13.60
2022,10,03,03,12,13.50
2022,10,03,03,13,13.50
2022,10,03,03,14,13.50
2022,10,03,03,15,13.50
2022,10,03,03,16,13.50
2022,10,03,03,17,13.50
2022,10,03,03,18,13.50
2022,10,03,03,19,13.50
2022,10,03,03,20,13.50
2022,10,03,03,21,13.50
2022,10,03,03,22,13.50
2022,10,03,03,23,13.50
2022,10,03,03,24,13.50
2022,10,03,03,25,13.50
2022,10,03,03,26,13.50
2022,10,03,03,27,13.50
2022,10,03,03,28,13.40
2022,10,03,03,29,13.40
2022,10,03,03,30,13.40
2022,10,03,03,31,13.40
2022,10,03,03,32,13.40
2022,10,03,03,33,13.40
2022,10,03,03,34,13.40
2022,10,03,03,35,13.40
2022,10,03,03,36,13.40
2022,10,03,03,37,13.40
2022,10,03,03,38,13.40
2022,10,03,03,39,13.40
2022,10,03,03,40,13.40
2022,10,03,03,41,13.40
2022,10,03,03,42,13.40
2022,10,03,03,43,13.40
2022,10,03,03,44,13.40
2022,10,03,03,45,13.30
2022,10,03,03,46,13.30
2022,10,03,03,47,13.30
2022,10,03,03,48,13.30
2022,10,03,03,49,13.30
2022,10,03,03,50,13.30
2022,10,03,03,51,13.30
2022,10,03,03,52,13.30
2022,10,03,03,53,13.30
2022,10,03,03,54,13.30
2022,10,03,03,55,13.30
2022,10,03,03,56,13.30
2022,10,03,03,57,13.30
2022,10,03,03,58,13.30
2022,10,03,03,59,13.30
2022,10,03,04,00,13.30
2022,10,03,04,01,13.30
2022,10,03,04,02,13.30
2022,10,03,04,03,13.30
2022,10,03,04,04,13.30
2022,10,03,04,05,13.30
2022,10,03,04,06,13.30
2022,10,03,04,07,13.30
2022,10,03,04,08,13.30
2022,10,03,04,09,13.30
2022,10,03,04,10,13.30
2022,10,03,04,11,13.30
2022,10,03,04,12,13.30
2022,10,03,04,13,13.30
2022,10,03,04,14,13.30
2022,10,03,04,15,13.30
2022,10,03,04,16,13.30
2022,10,03,04,17,13.30
2022,10,03,04,18,13.30
2022,10,03,04,19,13.30
2022,10,03,04,20,13.30
2022,10,03,04,21,13.30
2022,10,03,04,22,13.30
2022,10,03,04,23,13.30
2022,10,03,04,24,13.30
2022,10,03,04,25,13.30
2022,10,03,04,26,13.30
2022,10,03,04,27,13.30
2022,10,03,04,28,13.30
2022,10,03,04,29,13.30
2022,10,03,04,30,13.20
2022,10,03,04,31,13.20
2022,10,03,04,32,13.20
2022,10,03,04,33,13.20
2022,10,03,04,34,13.20
2022,10,03,04,35,13.20
2022,10,03,04,36,13.20
2022,10,03,04,37,13.20
2022,10,03,04,38,13.20
2022,10,03,04,39,13.20
2022,10,03,04,40,13.20
2022,10,03,04,41,13.20
2022,10,03,04,42,13.20
2022,10,03,04,43,13.20
2022,10,03,04,44,13.20
2022,10,03,04,45,13.20
2022,10,03,04,46,13.20
2022,10,03,04,47,13.20
2022,10,03,04,48,13.20
2022,10,03,04,49,13.20
2022,10,03,04,50,13.20
2022,10,03,04,51,13.20
2022,10,03,04,52,13.20
2022,10,03,04,53,13.20
2022,10,03,04,54,13.20
2022,10,03,04,55,13.20
2022,10,03,04,56,13.20
2022,10,03,04,57,13.10
2022,10,03,04,58,13.10
2022,10,03,04,59,13.10
2022,10,03,05,00,13.10
2022,10,03,05,01,13.10
2022,10,03,05,02,13.10
2022,10,03,05,03,13.10
2022,10,03,05,04,13.10
2022,10,03,05,05,13.10
2022,10,03,05,06,13.10
2022,10,03,05,07,13.10
2022,10,03,05,08,13.10
2022,10,03,05,09,13.10
2022,10,03,05,10,13.10
2022,10,03,05,11,13.10
2022,10,03,05,12,13.10
2022,10,03,05,13,13.10
2022,10,03,05,14,13.10
2022,10,03,05,15,13.10
2022,10,03,05,16,13.10
2022,10,03,05,17,13.10
2022,10,03,05,18,13.10
2022,10,03,05,19,13.10
2022,10,03,05,20,13.10
2022,10,03,05,21,13.10
2022,10,03,05,22,13.10
2022,10,03,05,23,13.10
2022,10,03,05,24,13.10
2022,10,03,05,25,13.10
2022,10,03,05,26,13.10
2022,10,03,05,27,13.10
2022,10,03,05,28,13.10
2022,10,03,05,29,13.10
2022,10,03,05,30,13.10
2022,10,03,05,31,13.00
2022,10,03,05,32,13.00
2022,10,03,05,33,13.00
2022,10,03,05,34,13.00
2022,10,03,05,35,13.00
2022,10,03,05,36,12.90
2022,10,03,05,37,13.00
2022,10,03,05,38,12.90
2022,10,03,05,39,12.90
2022,10,03,05,40,12.90
2022,10,03,05,41,12.90
2022,10,03,05,42,12.90
2022,10,03,05,43,12.90
2022,10,03,05,44,12.90
2022,10,03,05,45,12.90
2022,10,03,05,46,12.90
2022,10,03,05,47,12.90
2022,10,03,05,48,12.90
2022,10,03,05,49,12.90
2022,10,03,05,50,12.90
2022,10,03,05,51,12.90
2022,10,03,05,52,12.90
2022,10,03,05,53,12.90
2022,10,03,05,54,12.90
2022,10,03,05,55,12.90
2022,10,03,05,56,12.90
2022,10,03,05,57,12.90
2022,10,03,05,58,12.90
2022,10,03,05,59,12.90
2022,10,03,06,00,12.90
2022,10,03,06,01,12.90
2022,10,03,06,02,12.90
2022,10,03,06,03,12.90
2022,10,03,06,04,12.90
2022,10,03,06,05,12.90
2022,10,03,06,06,12.90
2022,10,03,06,07,12.80
2022,10,03,06,08,12.80
2022,10,03,06,09,12.80
2022,10,03,06,10,12.80
2022,10,03,06,11,12.80
2022,10,03,06,12,12.80
2022,10,03,06,13,12.80
2022,10,03,06,14,12.80
2022,10,03,06,15,12.80
2022,10,03,06,16,12.80
2022,10,03,06,17,12.80
2022,10,03,06,18,12.80
2022,10,03,06,19,12.80
2022,10,03,06,20,12.80
2022,10,03,06,21,12.80
2022,10,03,06,22,12.80
2022,10,03,06,23,12.80
2022,10,03,06,24,12.80
2022,10,03,06,25,12.80
2022,10,03,06,26,12.80
2022,10,03,06,27,12.80
2022,10,03,06,28,12.80
2022,10,03,06,29,12.80
2022,10,03,06,30,12.80
2022,10,03,06,31,12.80
2022,10,03,06,32,12.80
2022,10,03,06,33,12.80
2022,10,03,06,34,12.80
2022,10,03,06,35,12.80
2022,10,03,06,36,12.80
2022,10,03,06,37,12.80
2022,10,03,06,38,12.80
2022,10,03,06,39,12.80
2022,10,03,06,40,12.80
2022,10,03,06,41,12.70
2022,10,03,06,42,12.70
2022,10,03,06,43,12.70
2022,10,03,06,44,12.70
2022,10,03,06,45,12.70
2022,10,03,06,46,12.70
2022,10,03,06,47,12.70
2022,10,03,06,48,12.70
2022,10,03,06,49,12.70
2022,10,03,06,50,12.70
2022,10,03,06,51,12.70
2022,10,03,06,52,12.70
2022,10,03,06,53,12.70
2022,10,03,06,54,12.70
2022,10,03,06,55,12.70
2022,10,03,06,56,12.70
2022,10,03,06,57,12.70
2022,10,03,06,58,12.70
2022,10,03,06,59,12.70
2022,10,03,07,00,12.70
2022,10,03,07,01,12.70
2022,10,03,07,02,12.70
2022,10,03,07,03,12.70
2022,10,03,07,04,12.70
2022,10,03,07,05,12.70
2022,10,03,07,06,12.70
2022,10,03,07,07,12.70
2022,10,03,07,08,12.70
2022,10,03,07,09,12.60
2022,10,03,07,10,12.60
2022,10,03,07,11,12.60
2022,10,03,07,12,12.60
2022,10,03,07,13,12.60
2022,10,03,07,14,12.60
2022,10,03,07,15,12.60
2022,10,03,07,16,12.60
2022,10,03,07,17,12.60
2022,10,03,07,18,12.60
2022,10,03,07,19,12.60
2022,10,03,07,20,12.60
2022,10,03,07,21,12.60
2022,10,03,07,22,12.60
2022,10,03,07,23,12.60
2022,10,03,07,24,12.60
2022,10,03,07,25,12.60
2022,10,03,07,26,12.60
2022,10,03,07,27,12.60
2022,10,03,07,28,12.60
2022,10,03,07,29,12.60
2022,10,03,07,30,12.60
2022,10,03,07,31,12.60
2022,10,03,07,32,12.60
2022,10,03,07,33,12.60
2022,10,03,07,34,12.60
2022,10,03,07,35,12.60
2022,10,03,07,36,12.60
2022,10,03,07,37,12.70
2022,10,03,07,38,12.70
2022,10,03,07,39,12.70
2022,10,03,07,40,12.70
2022,10,03,07,41,12.70
2022,10,03,07,42,12.70
2022,10,03,07,43,12.80
2022,10,03,07,44,12.80
2022,10,03,07,45,12.80
2022,10,03,07,46,12.80
2022,10,03,07,47,12.80
2022,10,03,07,48,12.80
2022,10,03,07,49,12.80
2022,10,03,07,50,12.80
2022,10,03,07,51,12.90
2022,10,03,07,52,12.90
2022,10,03,07,53,12.90
2022,10,03,07,54,12.90
2022,10,03,07,55,13.00
2022,10,03,07,56,13.00
2022,10,03,07,57,13.10
2022,10,03,07,58,13.10
2022,10,03,07,59,13.20
2022,10,03,08,00,13.20
2022,10,03,08,01,13.20
2022,10,03,08,02,13.20
2022,10,03,08,03,13.30
2022,10,03,08,04,13.30
2022,10,03,08,05,13.40
2022,10,03,08,06,13.40
2022,10,03,08,07,13.50
2022,10,03,08,08,13.60
2022,10,03,08,09,13.60
2022,10,03,08,10,13.70
2022,10,03,08,11,13.80
2022,10,03,08,12,13.80
2022,10,03,08,13,13.90
2022,10,03,08,14,14.00
2022,10,03,08,15,14.00
2022,10,03,08,16,14.10
2022,10,03,08,17,14.10
2022,10,03,08,18,14.20
2022,10,03,08,19,14.20
2022,10,03,08,20,14.20
2022,10,03,08,21,14.20
2022,10,03,08,22,14.30
2022,10,03,08,23,14.30
2022,10,03,08,24,14.40
2022,10,03,08,25,14.50
2022,10,03,08,26,14.60
2022,10,03,08,27,14.60
2022,10,03,08,28,14.70
2022,10,03,08,29,14.80
2022,10,03,08,30,14.90
2022,10,03,08,31,14.90
2022,10,03,08,32,15.00
2022,10,03,08,33,15.10
2022,10,03,08,34,15.10
2022,10,03,08,35,15.20
2022,10,03,08,36,15.20
2022,10,03,08,37,15.20
2022,10,03,08,38,15.30
2022,10,03,08,39,15.30
2022,10,03,08,40,15.40
2022,10,03,08,41,15.40
2022,10,03,08,42,15.50
2022,10,03,08,43,15.60
2022,10,03,08,44,15.60
2022,10,03,08,45,15.60
2022,10,03,08,46,15.60
2022,10,03,08,47,15.70
2022,10,03,08,48,15.70
2022,10,03,08,49,15.80
2022,10,03,08,50,15.80
2022,10,03,08,51,15.80
2022,10,03,08,52,15.90
2022,10,03,08,53,15.90
2022,10,03,08,54,15.90
2022,10,03,08,55,16.00
2022,10,03,08,56,16.00
2022,10,03,08,57,16.00
2022,10,03,08,58,16.00
2022,10,03,08,59,16.00
2022,10,03,09,00,16.00
2022,10,03,09,01,16.00
2022,10,03,09,02,16.10
2022,10,03,09,03,16.10
2022,10,03,09,04,16.10
2022,10,03,09,05,16.20
2022,10,03,09,06,16.20
2022,10,03,09,07,16.20
2022,10,03,09,08,16.20
2022,10,03,09,09,16.20
2022,10,03,09,10,16.20
2022,10,03,09,11,16.20
2022,10,03,09,12,16.30
2022,10,03,09,13,16.30
2022,10,03,09,14,16.30
2022,10,03,09,15,16.30
2022,10,03,09,16,16.30
2022,10,03,09,17,16.40
2022,10,03,09,18,16.40
2022,10,03,09,19,16.40
2022,10,03,09,20,16.40
2022,10,03,09,21,16.50
2022,10,03,09,22,16.50
2022,10,03,09,23,16.50
2022,10,03,09,24,16.50
2022,10,03,09,25,16.60
2022,10,03,09,26,16.60
2022,10,03,09,27,16.60
2022,10,03,09,28,16.60
2022,10,03,09,29,16.70
2022,10,03,09,30,16.70
2022,10,03,09,31,16.70
2022,10,03,09,32,16.70
2022,10,03,09,33,16.70
2022,10,03,09,34,16.70
2022,10,03,09,35,16.80
2022,10,03,09,36,16.80
2022,10,03,09,37,16.80
2022,10,03,09,38,16.70
2022,10,03,09,39,16.70
2022,10,03,09,40,16.70
2022,10,03,09,41,16.70
2022,10,03,09,42,16.70
2022,10,03,09,43,16.70
2022,10,03,09,44,16.70
2022,10,03,09,45,16.70
2022,10,03,09,46,16.70
2022,10,03,09,47,16.70
2022,10,03,09,48,16.70
2022,10,03,09,49,16.70
2022,10,03,09,50,16.70
2022,10,03,09,51,16.70
2022,10,03,09,52,16.70
2022,10,03,09,53,16.80
2022,10,03,09,54,16.80
2022,10,03,09,55,16.80
2022,10,03,09,56,16.80
2022,10,03,09,57,16.80
2022,10,03,09,58,16.80
2022,10,03,09,59,16.80
2022,10,03,10,00,16.80
2022,10,03,10,01,16.80
2022,10,03,10,02,16.90
2022,10,03,10,03,16.90
2022,10,03,10,04,16.90
2022,10,03,10,05,16.90
2022,10,03,10,06,16.90
2022,10,03,10,07,17.00
2022,10,03,10,08,17.10
2022,10,03,10,09,17.10
2022,10,03,10,10,17.10
2022,10,03,10,11,17.20
2022,10,03,10,12,17.20
2022,10,03,10,13,17.30
2022,10,03,10,14,17.30
2022,10,03,10,15,17.30
2022,10,03,10,16,17.30
2022,10,03,10,17,17.30
2022,10,03,10,18,17.30
2022,10,03,10,19,17.40
2022,10,03,10,20,17.40
2022,10,03,10,21,17.40
2022,10,03,10,22,17.50
2022,10,03,10,23,17.60
2022,10,03,10,24,17.60
2022,10,03,10,25,17.60
2022,10,03,10,26,17.70
2022,10,03,10,27,17.70
2022,10,03,10,28,17.70
2022,10,03,10,29,17.80
2022,10,03,10,30,17.80
2022,10,03,10,31,17.90
2022,10,03,10,32,17.90
2022,10,03,10,33,17.90
2022,10,03,10,34,17.90
2022,10,03,10,35,17.90
2022,10,03,10,36,17.80
2022,10,03,10,37,17.80
2022,10,03,10,38,17.80
2022,10,03,10,39,17.70
2022,10,03,10,40,17.70
2022,10,03,10,41,17.60
2022,10,03,10,42,17.60
2022,10,03,10,43,17.50
2022,10,03,10,44,17.40
2022,10,03,10,45,17.40
2022,10,03,10,46,17.30
2022,10,03,10,47,17.20
2022,10,03,10,48,17.20
2022,10,03,10,49,17.20
2022,10,03,10,50,17.20
2022,10,03,10,51,17.20
2022,10,03,10,52,17.20
2022,10,03,10,53,17.20
2022,10,03,10,54,17.20
2022,10,03,10,55,17.20
2022,10,03,10,56,17.20
2022,10,03,10,57,17.30
2022,10,03,10,58,17.30
2022,10,03,10,59,17.40
2022,10,03,11,00,17.50
2022,10,03,11,01,17.50
2022,10,03,11,02,17.60
2022,10,03,11,03,17.70
2022,10,03,11,04,17.70
2022,10,03,11,05,17.80
2022,10,03,11,06,17.80
2022,10,03,11,07,17.90
2022,10,03,11,08,17.90
2022,10,03,11,09,18.00
2022,10,03,11,10,18.10
2022,10,03,11,11,18.10
2022,10,03,11,12,18.20
2022,10,03,11,13,18.30
2022,10,03,11,14,18.40
2022,10,03,11,15,18.50
2022,10,03,11,16,18.60
2022,10,03,11,17,18.70
2022,10,03,11,18,18.80
2022,10,03,11,19,18.80
2022,10,03,11,20,18.90
2022,10,03,11,21,19.00
2022,10,03,11,22,19.10
2022,10,03,11,23,19.10
2022,10,03,11,24,19.20
2022,10,03,11,25,19.30
2022,10,03,11,26,19.30
2022,10,03,11,27,19.30
2022,10,03,11,28,19.30
2022,10,03,11,29,19.30
2022,10,03,11,30,19.30
2022,10,03,11,31,19.40
2022,10,03,11,32,19.40
2022,10,03,11,33,19.40
2022,10,03,11,34,19.40
2022,10,03,11,35,19.40
2022,10,03,11,36,19.40
2022,10,03,11,37,19.50
2022,10,03,11,38,19.50
2022,10,03,11,39,19.50
2022,10,03,11,40,19.60
2022,10,03,11,41,19.60
2022,10,03,11,42,19.60
2022,10,03,11,43,19.60
2022,10,03,11,44,19.50
2022,10,03,11,45,19.40
2022,10,03,11,46,19.30
2022,10,03,11,47,19.30
2022,10,03,11,48,19.20
2022,10,03,11,49,19.10
2022,10,03,11,50,19.10
2022,10,03,11,51,19.00
2022,10,03,11,52,19.00
2022,10,03,11,53,19.00
2022,10,03,11,54,19.00
2022,10,03,11,55,19.00
2022,10,03,11,56,19.00
2022,10,03,11,57,19.10
2022,10,03,11,58,19.10
2022,10,03,11,59,19.10
2022,10,03,12,00,19.10
2022,10,03,12,01,19.10
2022,10,03,12,02,19.20
2022,10,03,12,03,19.20
2022,10,03,12,04,19.20
2022,10,03,12,05,19.30
2022,10,03,12,06,19.30
2022,10,03,12,07,19.30
2022,10,03,12,08,19.30
2022,10,03,12,09,19.30
2022,10,03,12,10,19.40
2022,10,03,12,11,19.40
2022,10,03,12,12,19.50
2022,10,03,12,13,19.50
2022,10,03,12,14,19.60
2022,10,03,12,15,19.70
2022,10,03,12,16,19.90
2022,10,03,12,17,20.00
2022,10,03,12,18,20.20
2022,10,03,12,19,20.40
2022,10,03,12,20,20.60
2022,10,03,12,21,20.80
2022,10,03,12,22,20.90
2022,10,03,12,23,21.00
2022,10,03,12,24,21.10
2022,10,03,12,25,21.20
2022,10,03,12,26,21.30
2022,10,03,12,27,21.30
2022,10,03,12,28,21.30
2022,10,03,12,29,21.40
2022,10,03,12,30,21.40
2022,10,03,12,31,21.40
2022,10,03,12,32,21.40
2022,10,03,12,33,21.40
2022,10,03,12,34,21.30
2022,10,03,12,35,21.40
2022,10,03,12,36,21.40
2022,10,03,12,37,21.40
2022,10,03,12,38,21.50
2022,10,03,12,39,21.50
2022,10,03,12,40,21.60
2022,10,03,12,41,21.60
2022,10,03,12,42,21.60
2022,10,03,12,43,21.50
2022,10,03,12,44,21.40
2022,10,03,12,45,21.40
2022,10,03,12,46,21.40
2022,10,03,12,47,21.40
2022,10,03,12,48,21.40
2022,10,03,12,49,21.40
2022,10,03,12,50,21.40
2022,10,03,12,51,21.40
2022,10,03,12,52,21.40
2022,10,03,12,53,21.40
2022,10,03,12,54,21.50
2022,10,03,12,55,21.50
2022,10,03,12,56,21.50
2022,10,03,12,57,21.50
2022,10,03,12,58,21.50
2022,10,03,12,59,21.50
2022,10,03,13,00,21.40
2022,10,03,13,01,21.50
2022,10,03,13,02,21.40
2022,10,03,13,03,21.40
2022,10,03,13,04,21.40
2022,10,03,13,05,21.40
2022,10,03,13,06,21.40
2022,10,03,13,07,21.40
2022,10,03,13,08,21.40
2022,10,03,13,09,21.40
2022,10,03,13,10,21.40
2022,10,03,13,11,21.50
2022,10,03,13,12,21.40
2022,10,03,13,13,21.40
2022,10,03,13,14,21.40
2022,10,03,13,15,21.40
2022,10,03,13,16,21.50
2022,10,03,13,17,21.50
2022,10,03,13,18,21.60
2022,10,03,13,19,21.60
2022,10,03,13,20,21.60
2022,10,03,13,21,21.70
2022,10,03,13,22,21.70
2022,10,03,13,23,21.70
2022,10,03,13,24,21.60
2022,10,03,13,25,21.30
2022,10,03,13,26,21.00
2022,10,03,13,27,20.60
2022,10,03,13,28,20.30
2022,10,03,13,29,20.10
2022,10,03,13,30,19.90
2022,10,03,13,31,19.70
2022,10,03,13,32,19.50
2022,10,03,13,33,19.40
2022,10,03,13,34,19.30
2022,10,03,13,35,19.30
2022,10,03,13,36,19.40
2022,10,03,13,37,19.40
2022,10,03,13,38,19.40
2022,10,03,13,39,19.30
2022,10,03,13,40,19.20
2022,10,03,13,41,19.00
2022,10,03,13,42,19.00
2022,10,03,13,43,18.90
2022,10,03,13,44,18.90
2022,10,03,13,45,18.90
2022,10,03,13,46,18.90
2022,10,03,13,47,18.90
2022,10,03,13,48,19.00
2022,10,03,13,49,19.00
2022,10,03,13,50,19.00
2022,10,03,13,51,19.00
2022,10,03,13,52,19.00
2022,10,03,13,53,19.00
2022,10,03,13,54,19.00
2022,10,03,13,55,19.10
2022,10,03,13,56,19.10
2022,10,03,13,57,19.20
2022,10,03,13,58,19.20
2022,10,03,13,59,19.30
2022,10,03,14,00,19.30
2022,10,03,14,01,19.30
2022,10,03,14,02,19.30
2022,10,03,14,03,19.30
2022,10,03,14,04,19.30
2022,10,03,14,05,19.40
2022,10,03,14,06,19.40
2022,10,03,14,07,19.50
2022,10,03,14,08,19.50
2022,10,03,14,09,19.50
2022,10,03,14,10,19.50
2022,10,03,14,11,19.60
2022,10,03,14,12,19.70
2022,10,03,14,13,19.70
2022,10,03,14,14,19.80
2022,10,03,14,15,19.90
2022,10,03,14,16,19.90
2022,10,03,14,17,19.90
2022,10,03,14,18,19.90
2022,10,03,14,19,19.90
2022,10,03,14,20,19.80
2022,10,03,14,21,19.80
2022,10,03,14,22,19.80
2022,10,03,14,23,19.80
2022,10,03,14,24,19.80
2022,10,03,14,25,19.80
2022,10,03,14,26,19.80
2022,10,03,14,27,19.80
2022,10,03,14,28,19.80
2022,10,03,14,29,19.70
2022,10,03,14,30,19.70
2022,10,03,14,31,19.70
2022,10,03,14,32,19.70
2022,10,03,14,33,19.70
2022,10,03,14,34,19.70
2022,10,03,14,35,19.70
2022,10,03,14,36,19.60
2022,10,03,14,37,19.60
2022,10,03,14,38,19.60
2022,10,03,14,39,19.60
2022,10,03,14,40,19.60
2022,10,03,14,41,19.60
2022,10,03,14,42,19.60
2022,10,03,14,43,19.70
2022,10,03,14,44,19.70
2022,10,03,14,45,19.80
2022,10,03,14,46,19.80
2022,10,03,14,47,19.80
2022,10,03,14,48,19.90
2022,10,03,14,49,19.90
2022,10,03,14,50,19.80
2022,10,03,14,51,19.80
2022,10,03,14,52,19.80
2022,10,03,14,53,19.80
2022,10,03,14,54,19.70
2022,10,03,14,55,19.70
2022,10,03,14,56,19.70
2022,10,03,14,57,19.80
2022,10,03,14,58,19.80
2022,10,03,14,59,19.90
2022,10,03,15,00,19.70
2022,10,03,15,01,19.60
2022,10,03,15,02,19.50
2022,10,03,15,03,19.40
2022,10,03,15,04,19.40
2022,10,03,15,05,19.30
2022,10,03,15,06,19.30
2022,10,03,15,07,19.20
2022,10,03,15,08,19.20
2022,10,03,15,09,19.10
2022,10,03,15,10,19.10
2022,10,03,15,11,19.20
2022,10,03,15,12,19.20
2022,10,03,15,13,19.30
2022,10,03,15,14,19.30
2022,10,03,15,15,19.20
2022,10,03,15,16,19.20
2022,10,03,15,17,19.20
2022,10,03,15,18,19.30
2022,10,03,15,19,19.30
2022,10,03,15,20,19.30
2022,10,03,15,21,19.30
2022,10,03,15,22,19.30
2022,10,03,15,23,19.30
2022,10,03,15,24,19.30
2022,10,03,15,25,19.30
2022,10,03,15,26,19.30
2022,10,03,15,27,19.30
2022,10,03,15,28,19.40
2022,10,03,15,29,19.40
2022,10,03,15,30,19.30
2022,10,03,15,31,19.30
2022,10,03,15,32,19.20
2022,10,03,15,33,19.20
2022,10,03,15,34,19.20
2022,10,03,15,35,19.20
2022,10,03,15,36,19.20
2022,10,03,15,37,19.20
2022,10,03,15,38,19.20
2022,10,03,15,39,19.20
2022,10,03,15,40,19.30
2022,10,03,15,41,19.40
2022,10,03,15,42,19.50
2022,10,03,15,43,19.50
2022,10,03,15,44,19.50
2022,10,03,15,45,19.40
2022,10,03,15,46,19.30
2022,10,03,15,47,19.20
2022,10,03,15,48,19.20
2022,10,03,15,49,19.20
2022,10,03,15,50,19.20
2022,10,03,15,51,19.20
2022,10,03,15,52,19.20
2022,10,03,15,53,19.10
2022,10,03,15,54,19.20
2022,10,03,15,55,19.10
2022,10,03,15,56,19.20
2022,10,03,15,57,19.20
2022,10,03,15,58,19.30
2022,10,03,15,59,19.40
2022,10,03,16,00,19.40
2022,10,03,16,01,19.50
2022,10,03,16,02,19.60
2022,10,03,16,03,19.70
2022,10,03,16,04,19.70
2022,10,03,16,05,19.80
2022,10,03,16,06,19.80
2022,10,03,16,07,19.80
2022,10,03,16,08,19.70
2022,10,03,16,09,19.70
2022,10,03,16,10,19.60
2022,10,03,16,11,19.60
2022,10,03,16,12,19.60
2022,10,03,16,13,19.60
2022,10,03,16,14,19.60
2022,10,03,16,15,19.60
2022,10,03,16,16,19.60
2022,10,03,16,17,19.60
2022,10,03,16,18,19.60
2022,10,03,16,19,19.60
2022,10,03,16,20,19.60
2022,10,03,16,21,19.50
2022,10,03,16,22,19.50
2022,10,03,16,23,19.50
2022,10,03,16,24,19.50
2022,10,03,16,25,19.50
2022,10,03,16,26,19.50
2022,10,03,16,27,19.50
2022,10,03,16,28,19.40
2022,10,03,16,29,19.40
2022,10,03,16,30,19.30
2022,10,03,16,31,19.20
2022,10,03,16,32,19.20
2022,10,03,16,33,19.20
2022,10,03,16,34,19.20
2022,10,03,16,35,19.10
2022,10,03,16,36,19.10
2022,10,03,16,37,19.10
2022,10,03,16,38,19.10
2022,10,03,16,39,19.10
2022,10,03,16,40,19.10
2022,10,03,16,41,19.20
2022,10,03,16,42,19.20
2022,10,03,16,43,19.20
2022,10,03,16,44,19.20
2022,10,03,16,45,19.20
2022,10,03,16,46,19.20
2022,10,03,16,47,19.20
2022,10,03,16,48,19.20
2022,10,03,16,49,19.20
2022,10,03,16,50,19.20
2022,10,03,16,51,19.30
2022,10,03,16,52,19.30
2022,10,03,16,53,19.30
2022,10,03,16,54,19.30
2022,10,03,16,55,19.30
2022,10,03,16,56,19.30
2022,10,03,16,57,19.30
2022,10,03,16,58,19.30
2022,10,03,16,59,19.30
2022,10,03,17,00,19.30
2022,10,03,17,01,19.20
2022,10,03,17,02,19.20
2022,10,03,17,03,19.10
2022,10,03,17,04,19.10
2022,10,03,17,05,19.10
2022,10,03,17,06,19.10
2022,10,03,17,07,19.10
2022,10,03,17,08,19.10
2022,10,03,17,09,19.10
2022,10,03,17,10,19.10
2022,10,03,17,11,19.10
2022,10,03,17,12,19.20
2022,10,03,17,13,19.20
2022,10,03,17,14,19.30
2022,10,03,17,15,19.30
2022,10,03,17,16,19.40
2022,10,03,17,17,19.40
2022,10,03,17,18,19.40
2022,10,03,17,19,19.40